CW5757 Weather Reports


Display with metric or nautical units.
time (UTC)temp
F
wind
direction
speed
MPH
gust
MPH
rain 1hr
in
rain 24hr
in
rain mn
in
humidity
%
barometer
mb
20260831225427 90 92 0.0 0.0 0.00 0.00 0.00 41 1018.2
20260831224927 90 92 0.0 0.0 0.00 0.00 0.00 41 1018.2
20260831224427 90 92 0.0 0.0 0.00 0.00 0.00 42 1018.1
20260831223927 90 92 0.0 0.0 0.00 0.00 0.00 40 1018.1
20260831223427 90 92 0.0 0.0 0.00 0.00 0.00 40 1018.1
20260831222927 90 92 0.0 0.0 0.00 0.00 0.00 41 1018.1
20260831222427 90 92 0.0 0.0 0.00 0.00 0.00 42 1018.1
20260831221932 91 92 0.0 0.0 0.00 0.00 0.00 42 1018.1
20260831221439 91 92 0.0 0.0 0.00 0.00 0.00 41 1018.1
20260831220927 91 92 0.0 0.0 0.00 0.00 0.00 42 1018.2
20260831220427 91 92 0.0 0.0 0.00 0.00 0.00 42 1018.3
20260831215928 91 92 0.0 0.0 0.00 0.00 0.00 42 1018.4
20260831215435 91 92 0.0 0.0 0.00 0.00 0.00 42 1018.4
20260831214942 91 92 0.0 0.0 0.00 0.00 0.00 42 1018.4
20260831214427 91 92 0.0 0.0 0.00 0.00 0.00 41 1018.5
20260831213932 91 92 0.0 0.0 0.00 0.00 0.00 41 1018.5
20260831213439 91 92 0.0 0.0 0.00 0.00 0.00 41 1018.4
20260831212932 91 92 0.0 0.0 0.00 0.00 0.00 42 1018.5
20260831212439 91 92 0.0 0.0 0.00 0.00 0.00 41 1018.4
20260831211930 91 92 0.0 0.0 0.00 0.00 0.00 41 1018.4
20260831211437 91 92 0.0 0.0 0.00 0.00 0.00 42 1018.4
20260831210944 91 92 0.0 0.0 0.00 0.00 0.00 40 1018.4
20260831210439 91 92 0.0 0.0 0.00 0.00 0.00 40 1018.4
20260831205931 91 92 0.0 0.0 0.00 0.00 0.00 41 1018.4
20260831205439 91 92 0.0 0.0 0.00 0.00 0.00 41 1018.5
20260831204932 91 92 0.0 0.0 0.00 0.00 0.00 41 1018.5
20260831204439 92 92 0.0 0.0 0.00 0.00 0.00 41 1018.6
20260831203927 92 92 0.0 0.0 0.00 0.00 0.00 41 1018.6
20260831203427 92 92 0.0 0.0 0.00 0.00 0.00 42 1018.6
20260831202926 92 92 0.0 0.0 0.00 0.00 0.00 42 1018.7
20260831202427 92 92 0.0 0.0 0.00 0.00 0.00 42 1018.9
20260831201927 92 92 0.0 0.0 0.00 0.00 0.00 42 1019.0
20260831201427 92 92 0.0 0.0 0.00 0.00 0.00 43 1018.9
20260831200927 92 92 0.0 0.0 0.00 0.00 0.00 43 1018.9
20260831200427 92 92 0.0 0.0 0.00 0.00 0.00 42 1019.0
20260831195927 92 92 0.0 0.0 0.00 0.00 0.00 41 1019.0
20260831195433 92 92 0.0 0.0 0.00 0.00 0.00 42 1019.1
20260831194939 92 92 0.0 0.0 0.00 0.00 0.00 43 1019.3
20260831194427 92 92 0.0 0.0 0.00 0.00 0.00 43 1019.4
20260831193927 92 92 0.0 0.0 0.00 0.00 0.00 43 1019.4
20260831193427 92 92 0.0 0.0 0.00 0.00 0.00 43 1019.4
20260831192927 93 92 0.0 0.0 0.00 0.00 0.00 43 1019.5
20260831192431 93 92 0.0 0.0 0.00 0.00 0.00 43 1019.5
20260831191939 93 92 0.0 0.0 0.00 0.00 0.00 42 1019.5
20260831191427 93 92 0.0 0.0 0.00 0.00 0.00 42 1019.5
20260831190927 93 92 0.0 0.0 0.00 0.00 0.00 43 1019.5
20260831190427 93 92 0.0 0.0 0.00 0.00 0.00 43 1019.7
20260831185932 93 92 0.0 0.0 0.00 0.00 0.00 42 1019.7
20260831185439 94 92 0.0 0.0 0.00 0.00 0.00 43 1019.8
20260831184927 93 92 0.0 0.0 0.00 0.00 0.00 44 1020.0
20260831184427 93 92 0.0 0.0 0.00 0.00 0.00 43 1020.1
20260831183927 93 92 0.0 0.0 0.00 0.00 0.00 43 1020.1
20260831183427 94 92 0.0 0.0 0.00 0.00 0.00 42 1020.1
20260831182927 94 92 0.0 0.0 0.00 0.00 0.00 43 1020.2
20260831182432 94 92 0.0 0.0 0.00 0.00 0.00 42 1020.3
20260831181939 95 92 0.0 2.0 0.00 0.00 0.00 42 1020.3
20260831181427 94 92 0.0 2.0 0.00 0.00 0.00 43 1020.4
20260831180932 94 92 0.0 2.0 0.00 0.00 0.00 45 1020.4
20260831180439 92 92 0.0 0.0 0.00 0.00 0.00 47 1020.5
20260831175927 91 92 0.0 0.0 0.00 0.00 0.00 46 1020.5
20260831175427 91 92 0.0 0.0 0.00 0.00 0.00 46 1020.7
20260831174927 91 92 0.0 0.0 0.00 0.00 0.00 48 1020.6
20260831174427 91 92 0.0 0.0 0.00 0.00 0.00 47 1020.7
20260831173927 92 92 0.0 0.0 0.00 0.00 0.00 45 1020.7
20260831173426 92 92 0.0 0.0 0.00 0.00 0.00 46 1020.8
20260831172927 92 92 0.0 0.0 0.00 0.00 0.00 46 1020.8
20260831172427 91 92 0.0 0.0 0.00 0.00 0.00 47 1020.9
20260831171932 91 92 0.0 0.0 0.00 0.00 0.00 46 1021.0
20260831171439 91 92 0.0 1.0 0.00 0.00 0.00 47 1021.0
20260831170927 91 92 0.0 1.0 0.00 0.00 0.00 49 1021.1
20260831170426 90 92 0.0 0.0 0.00 0.00 0.00 49 1021.1
20260831165648 90 92 0.0 0.0 0.00 0.00 0.00 52 1021.1
20260831165143 89 92 0.0 0.0 0.00 0.00 0.00 51 1021.2
20260831164650 89 92 0.0 2.0 0.00 0.00 0.00 50 1021.3
20260831164155 89 92 0.0 2.0 0.00 0.00 0.00 52 1021.3
20260831163626 88 92 0.0 1.0 0.00 0.00 0.00 53 1021.4
20260831163133 88 92 0.0 0.0 0.00 0.00 0.00 55 1021.3
20260831162628 88 92 0.0 1.0 0.00 0.00 0.00 56 1021.4
20260831162116 88 92 0.0 1.0 0.00 0.00 0.00 56 1021.5
20260831161616 87 92 0.0 0.0 0.00 0.00 0.00 58 1021.6
20260831161116 86 92 0.0 0.0 0.00 0.00 0.00 59 1021.6
20260831160616 86 92 0.0 0.0 0.00 0.00 0.00 59 1021.7
20260831160116 86 92 0.0 0.0 0.00 0.00 0.00 60 1021.6
20260831155616 86 92 0.0 0.0 0.00 0.00 0.00 60 1021.5
20260831155116 85 92 0.0 0.0 0.00 0.00 0.00 61 1021.7
20260831154616 85 92 0.0 0.0 0.00 0.00 0.00 60 1021.7
20260831154116 85 92 0.0 1.0 0.00 0.00 0.00 62 1021.6
20260831153616 85 92 0.0 1.0 0.00 0.00 0.00 63 1021.6
20260831153120 84 92 0.0 0.0 0.00 0.00 0.00 65 1021.7
20260831152628 84 92 0.0 0.0 0.00 0.00 0.00 66 1021.9
20260831152116 83 92 0.0 0.0 0.00 0.00 0.00 67 1021.9
20260831151616 83 92 0.0 0.0 0.00 0.00 0.00 69 1022.0
20260831151116 82 92 0.0 0.0 0.00 0.00 0.00 70 1022.0
20260831150616 82 92 0.0 0.0 0.00 0.00 0.00 70 1021.8
20260831150116 81 92 0.0 0.0 0.00 0.00 0.00 72 1021.9
20260831145619 81 92 0.0 0.0 0.00 0.00 0.00 73 1021.9
20260831145126 81 92 0.0 0.0 0.00 0.00 0.00 73 1022.0
20260831144633 80 92 0.0 0.0 0.00 0.00 0.00 74 1021.9
20260831144128 80 92 0.0 0.0 0.00 0.00 0.00 75 1021.9
20260831143635 80 92 0.0 0.0 0.00 0.00 0.00 75 1021.8
20260831143130 79 92 0.0 0.0 0.00 0.00 0.00 76 1021.7
20260831142616 79 92 0.0 0.0 0.00 0.00 0.00 78 1021.7
20260831142116 78 92 0.0 0.0 0.00 0.00 0.00 79 1021.6
20260831141618 78 92 0.0 0.0 0.00 0.00 0.00 80 1021.6
20260831141126 77 92 0.0 0.0 0.00 0.00 0.00 81 1021.6
20260831140633 77 92 0.0 0.0 0.00 0.00 0.00 82 1021.6
20260831140128 76 92 0.0 0.0 0.00 0.00 0.00 83 1021.6
20260831135616 76 92 0.0 0.0 0.00 0.00 0.00 83 1021.7
20260831135116 75 92 0.0 0.0 0.00 0.00 0.00 84 1021.7
20260831134616 75 92 0.0 0.0 0.00 0.00 0.00 84 1021.6
20260831134116 74 92 0.0 0.0 0.00 0.00 0.00 84 1021.7
20260831133616 74 92 0.0 0.0 0.00 0.00 0.00 84 1021.6
20260831133116 74 92 0.0 0.0 0.00 0.00 0.00 85 1021.6
20260831132621 73 92 0.0 0.0 0.00 0.00 0.00 84 1021.6
20260831132128 73 92 0.0 0.0 0.00 0.00 0.00 85 1021.6
20260831131616 73 92 0.0 0.0 0.00 0.00 0.00 85 1021.7
20260831131116 72 92 0.0 0.0 0.00 0.00 0.00 85 1021.6
20260831130153 72 92 0.0 0.0 0.00 0.00 0.00 85 1021.7
20260831125222 71 92 0.0 0.0 0.00 0.00 0.00 84 1021.6
20260831124312 71 92 0.0 0.0 0.00 0.00 0.00 84 1021.6
20260831123816 71 92 0.0 0.0 0.00 0.00 0.00 84 1021.7
20260831123323 70 92 0.0 0.0 0.00 0.00 0.00 84 1021.7
20260831122811 70 92 0.0 0.0 0.00 0.00 0.00 84 1021.7
20260831122311 70 92 0.0 0.0 0.00 0.00 0.00 84 1021.6
20260831121811 70 92 0.0 0.0 0.00 0.00 0.00 83 1021.6
20260831121311 70 92 0.0 0.0 0.00 0.00 0.00 83 1021.6
20260831120816 70 92 0.0 0.0 0.00 0.00 0.00 83 1021.6
20260831120323 70 92 0.0 0.0 0.00 0.00 0.00 83 1021.6
20260831115811 70 92 0.0 0.0 0.00 0.00 0.00 83 1021.5
20260831115311 70 92 0.0 0.0 0.00 0.00 0.00 83 1021.5
20260831114812 70 92 0.0 0.0 0.00 0.00 0.00 83 1021.5
20260831114319 70 92 0.0 0.0 0.00 0.00 0.00 82 1021.5
20260831113826 70 92 0.0 0.0 0.00 0.00 0.00 82 1021.4
20260831113333 70 92 0.0 0.0 0.00 0.00 0.00 83 1021.4
20260831112840 70 92 0.0 0.0 0.00 0.00 0.00 83 1021.4
20260831112348 70 92 0.0 0.0 0.00 0.00 0.00 82 1021.3
20260831111830 70 92 0.0 0.0 0.00 0.00 0.00 82 1021.3
20260831111325 70 92 0.0 0.0 0.00 0.00 0.00 82 1021.2
20260831110833 70 92 0.0 0.0 0.00 0.00 0.00 82 1021.2
20260831110337 70 92 0.0 0.0 0.00 0.00 0.00 83 1021.1
20260831105845 70 92 0.0 0.0 0.00 0.00 0.00 83 1021.0
20260831105340 70 92 0.0 0.0 0.00 0.00 0.00 82 1021.0
20260831104835 70 92 0.0 0.0 0.00 0.00 0.00 82 1021.0
20260831104342 70 92 0.0 0.0 0.00 0.00 0.00 82 1021.0
20260831103837 70 92 0.0 0.0 0.00 0.00 0.00 83 1021.0
20260831103344 71 92 0.0 0.0 0.00 0.00 0.00 83 1020.9
20260831102851 71 92 0.0 0.0 0.00 0.00 0.00 82 1020.9
20260831102358 71 92 0.0 0.0 0.00 0.00 0.00 82 1020.9
20260831101905 71 92 0.0 0.0 0.00 0.00 0.00 82 1020.9
20260831101400 71 92 0.0 0.0 0.00 0.00 0.00 82 1020.9
20260831100811 71 92 0.0 0.0 0.00 0.00 0.00 82 1020.8
20260831100311 71 92 0.0 0.0 0.00 0.00 0.00 82 1020.8
20260831095814 71 92 0.0 0.0 0.00 0.00 0.00 83 1020.8
20260831095311 71 92 0.0 0.0 0.00 0.00 0.00 83 1020.8
20260831094811 71 92 0.0 0.0 0.00 0.00 0.00 82 1020.7
20260831094311 71 92 0.0 0.0 0.00 0.00 0.00 82 1020.7
20260831093811 71 92 0.0 0.0 0.00 0.00 0.00 82 1020.8
20260831093311 71 92 0.0 0.0 0.00 0.00 0.00 82 1020.7
20260831092811 71 92 0.0 0.0 0.00 0.00 0.00 82 1020.7
20260831092311 71 92 0.0 0.0 0.00 0.00 0.00 82 1020.7
20260831091811 71 92 0.0 0.0 0.00 0.00 0.00 82 1020.7
20260831091311 71 92 0.0 0.0 0.00 0.00 0.00 82 1020.7
20260831090811 71 92 0.0 0.0 0.00 0.00 0.00 82 1020.7
20260831090313 71 92 0.0 0.0 0.00 0.00 0.00 82 1020.6
20260831085811 71 92 0.0 0.0 0.00 0.00 0.00 82 1020.7
20260831085001 71 92 0.0 0.0 0.00 0.00 0.00 82 1020.6
20260831084501 71 92 0.0 0.0 0.00 0.00 0.00 82 1020.6
20260831084001 71 92 0.0 0.0 0.00 0.00 0.00 82 1020.7
20260831083501 71 92 0.0 0.0 0.00 0.00 0.00 82 1020.6
20260831082544 71 92 0.0 0.0 0.00 0.00 0.00 82 1020.3
20260831081629 71 92 0.0 0.0 0.00 0.00 0.00 81 1020.2
20260831080704 71 92 0.0 0.0 0.00 0.00 0.00 81 1020.1
20260831080204 71 92 0.0 0.0 0.00 0.00 0.00 81 1020.2
20260831075704 71 92 0.0 0.0 0.00 0.00 0.00 81 1020.3
20260831075209 72 92 0.0 0.0 0.00 0.00 0.00 81 1020.2
20260831074716 72 92 0.0 0.0 0.00 0.00 0.00 81 1020.2
20260831074204 72 92 0.0 0.0 0.00 0.00 0.00 81 1020.2
20260831073704 72 92 0.0 0.0 0.00 0.00 0.00 81 1020.2
20260831073204 72 92 0.0 0.0 0.00 0.00 0.00 80 1020.3
20260831072704 72 92 0.0 0.0 0.00 0.00 0.00 80 1020.3
20260831072204 72 92 0.0 0.0 0.00 0.00 0.00 80 1020.3
20260831071704 72 92 0.0 0.0 0.00 0.00 0.00 80 1020.3
20260831071204 72 92 0.0 0.0 0.00 0.00 0.00 80 1020.2
20260831070704 72 92 0.0 0.0 0.00 0.00 0.00 79 1020.2
20260831070204 72 92 0.0 0.0 0.00 0.00 0.00 79 1020.2
20260831065704 72 92 0.0 0.0 0.00 0.00 0.00 79 1020.1
20260831065204 72 92 0.0 0.0 0.00 0.00 0.00 79 1020.1
20260831064704 72 92 0.0 0.0 0.00 0.00 0.00 79 1020.0
20260831064204 73 92 0.0 0.0 0.00 0.00 0.00 79 1020.1
20260831063709 73 92 0.0 0.0 0.00 0.00 0.00 79 1020.1
20260831063216 73 92 0.0 0.0 0.00 0.00 0.00 80 1020.1
20260831062704 73 92 0.0 0.0 0.00 0.00 0.00 79 1020.1
20260831062204 73 92 0.0 0.0 0.00 0.00 0.00 79 1020.0
20260831061704 73 92 0.0 0.0 0.00 0.00 0.00 79 1020.0
20260831061204 73 92 0.0 0.0 0.00 0.00 0.00 79 1020.0
20260831060709 73 92 0.0 0.0 0.00 0.00 0.00 79 1020.0
20260831060216 73 92 0.0 0.0 0.00 0.00 0.00 78 1020.1
20260831055704 73 92 0.0 0.0 0.00 0.00 0.00 78 1020.2
20260831055210 74 92 0.0 0.0 0.00 0.00 0.00 78 1020.3
20260831054717 74 92 0.0 0.0 0.00 0.00 0.00 78 1020.4
20260831054212 74 92 0.0 0.0 0.00 0.00 0.00 78 1020.3
20260831053719 74 92 0.0 0.0 0.00 0.00 0.00 77 1020.4
20260831053226 74 92 0.0 0.0 0.00 0.00 0.00 77 1020.4
20260831052721 74 92 0.0 0.0 0.00 0.00 0.00 77 1020.4
20260831052228 74 92 0.0 0.0 0.00 0.00 0.00 77 1020.5
20260831051709 74 92 0.0 0.0 0.00 0.00 0.00 77 1020.5
20260831051216 74 92 0.0 0.0 0.00 0.00 0.00 77 1020.4
20260831050704 75 92 0.0 0.0 0.00 0.00 0.00 77 1020.4
20260831050204 75 92 0.0 0.0 0.00 0.00 0.00 77 1020.4
20260831045704 75 92 0.0 0.0 0.00 0.00 0.00 77 1020.3
20260831045204 75 92 0.0 0.0 0.00 0.00 0.00 76 1020.3
20260831044704 75 92 0.0 0.0 0.00 0.00 0.00 76 1020.3
20260831044209 75 92 0.0 0.0 0.00 0.00 0.00 75 1020.4
20260831043716 75 92 0.0 0.0 0.00 0.00 0.00 75 1020.3
20260831043204 76 92 0.0 0.0 0.00 0.00 0.00 75 1020.4
20260831042704 76 92 0.0 0.0 0.00 0.00 0.00 74 1020.4
20260831042204 76 92 0.0 0.0 0.00 0.00 0.00 74 1020.5
20260831041704 76 92 0.0 0.0 0.00 0.00 0.00 74 1020.5
20260831041204 76 92 0.0 0.0 0.00 0.00 0.00 74 1020.4
20260831040709 76 92 0.0 0.0 0.00 0.00 0.00 74 1020.4
20260831040204 76 92 0.0 0.0 0.00 0.00 0.00 73 1020.4
20260831035704 77 92 0.0 0.0 0.00 0.00 0.00 73 1020.3
20260831035204 77 92 0.0 0.0 0.00 0.00 0.00 73 1020.3
20260831034704 77 92 0.0 0.0 0.00 0.00 0.00 73 1020.3
20260831034209 77 92 0.0 0.0 0.00 0.00 0.00 72 1020.4
20260831033716 77 92 0.0 0.0 0.00 0.00 0.00 72 1020.4
20260831033204 77 92 0.0 0.0 0.00 0.00 0.00 72 1020.4
20260831032704 77 92 0.0 0.0 0.00 0.00 0.00 72 1020.4
20260831032204 78 92 0.0 0.0 0.00 0.00 0.00 72 1020.5
20260831031704 78 92 0.0 0.0 0.00 0.00 0.00 71 1020.5
20260831031204 78 92 0.0 0.0 0.00 0.00 0.00 71 1020.4
20260831030704 78 92 0.0 0.0 0.00 0.00 0.00 71 1020.5
20260831030204 78 92 0.0 0.0 0.00 0.00 0.00 71 1020.4
20260831025704 78 92 0.0 0.0 0.00 0.00 0.00 71 1020.5
20260831025205 78 92 0.0 0.0 0.00 0.00 0.00 71 1020.5
20260831024712 79 92 0.0 0.0 0.00 0.00 0.00 70 1020.6
20260831024220 79 92 0.0 0.0 0.00 0.00 0.00 69 1020.6
20260831023727 79 92 0.0 0.0 0.00 0.00 0.00 69 1020.5
20260831023234 79 92 0.0 0.0 0.00 0.00 0.00 69 1020.5
20260831022729 79 92 0.0 0.0 0.00 0.00 0.00 69 1020.5
20260831022224 79 92 0.0 0.0 0.00 0.00 0.00 68 1020.5
20260831021731 80 92 0.0 0.0 0.00 0.00 0.00 69 1020.5
20260831021238 80 92 0.0 0.0 0.00 0.00 0.00 68 1020.4
20260831020721 80 92 0.0 0.0 0.00 0.00 0.00 67 1020.5
20260831020228 80 92 0.0 0.0 0.00 0.00 0.00 67 1020.4
20260831015723 81 92 0.0 0.0 0.00 0.00 0.00 67 1020.4
20260831015218 81 92 0.0 0.0 0.00 0.00 0.00 66 1020.3
20260831014726 81 92 0.0 0.0 0.00 0.00 0.00 66 1020.3
20260831014233 81 92 0.0 0.0 0.00 0.00 0.00 66 1020.3
20260831013716 82 92 0.0 0.0 0.00 0.00 0.00 65 1020.3
20260831013204 82 92 0.0 0.0 0.00 0.00 0.00 64 1020.3
20260831012704 82 92 0.0 0.0 0.00 0.00 0.00 64 1020.2
20260831012204 82 92 0.0 0.0 0.00 0.00 0.00 64 1020.1
20260831011709 83 92 0.0 0.0 0.00 0.00 0.00 63 1020.0
20260831011216 83 92 0.0 0.0 0.00 0.00 0.00 63 1020.0
20260831010704 83 92 0.0 0.0 0.00 0.00 0.00 62 1019.9
20260831010204 83 92 0.0 0.0 0.00 0.00 0.00 62 1019.8
20260831005704 84 92 0.0 0.0 0.00 0.00 0.00 61 1019.8
20260831005204 84 92 0.0 0.0 0.00 0.00 0.00 61 1019.7
20260831004704 84 92 0.0 0.0 0.00 0.00 0.00 61 1019.6
20260831004204 84 92 0.0 0.0 0.00 0.00 0.00 59 1019.5
20260831003704 84 92 0.0 0.0 0.00 0.00 0.00 59 1019.5
20260831002805 85 92 0.0 0.0 0.00 0.00 0.00 58 1019.5
20260831002306 85 92 0.0 0.0 0.00 0.00 0.00 58 1019.4
20260831001026 85 92 0.0 0.0 0.00 0.00 0.00 57 1019.3
20260831000530 86 92 0.0 0.0 0.00 0.00 0.00 57 1019.3
20260831000038 86 92 0.0 0.0 0.00 0.00 0.00 57 1019.4
20260830235526 86 92 0.0 0.0 0.00 0.00 0.00 56 1019.4
20260830235026 86 92 0.0 0.0 0.00 0.00 0.00 56 1019.4
20260830234526 86 92 0.0 0.0 0.00 0.00 0.00 56 1019.3
20260830234031 86 92 0.0 0.0 0.00 0.00 0.00 55 1019.3
20260830233538 86 92 0.0 0.0 0.00 0.00 0.00 54 1019.2
20260830233026 86 92 0.0 0.0 0.00 0.00 0.00 54 1019.2
20260830232526 86 92 0.0 0.0 0.00 0.00 0.00 54 1019.2
20260830232025 86 92 0.0 0.0 0.00 0.00 0.00 54 1019.1
20260830231531 87 92 0.0 0.0 0.00 0.00 0.00 53 1019.1
20260830231038 87 92 0.0 0.0 0.00 0.00 0.00 53 1019.0
20260830230526 87 92 0.0 0.0 0.00 0.00 0.00 53 1019.0
20260830230026 87 92 0.0 0.0 0.00 0.00 0.00 53 1019.0